(°C)
(°C)
ZSZ
SZ
SZ
S
SSV
SSV
S
(km/h)
8-17
8-18
9-16
9-15
9-19
10-17
11-16
(mm)
0
0
0
0
0
0
0
(%)
0
0
0
0
0
0
0

Sluneční výška

/ -14.3°
sun-icon
UV 5
04:09
20:45
Ubývající měsíc (240°)
01:22
07:28

METAR pro 55.6°S 37.27°V (UUWW)

Čas Podmínky Teplota/
Rosný bod
Vítr Viditelnost Počasí Oblaky Tlak Změna Nezpracované
VFR 7°C / 5°C 300º 6kt >10km - Clouds and Visibility OK 1014 No Significant change. Runway 24: Wet or puddles, 51-100% contamination with <1mm, friction coefficient 0.50. UUWW 192100Z 30003MPS CAVOK 07/05 Q1014 R24/290050 NOSIG
VFR 7°C / 5°C 300º 6kt >10km - Clouds and Visibility OK 1014 No Significant change. Runway 24: Wet or puddles, 51-100% contamination with <1mm, friction coefficient 0.50. UUWW 192030Z 30003MPS CAVOK 07/05 Q1014 R24/290050 NOSIG
VFR 7°C / 5°C 300º 6kt >10km - Clouds and Visibility OK 1014 No Significant change. Runway 24: Wet or puddles, 51-100% contamination with <1mm, friction coefficient 0.50. UUWW 192000Z 30003MPS CAVOK 07/05 Q1014 R24/290050 NOSIG
VFR 8°C / 5°C 290º 6kt >10km - Clouds and Visibility OK 1014 No Significant change. Runway 24: Wet or puddles, 51-100% contamination with <1mm, friction coefficient 0.50. UUWW 191930Z 29003MPS CAVOK 08/05 Q1014 R24/290050 NOSIG
VFR 8°C / 5°C 290º 6kt >10km - Clouds and Visibility OK 1014 No Significant change. Runway 24: Wet or puddles, 51-100% contamination with 1mm, friction coefficient 0.50. UUWW 191900Z 29003MPS CAVOK 08/05 Q1014 R24/290150 NOSIG
VFR 8°C / 6°C 290º 4kt >10km - Clouds and Visibility OK 1014 No Significant change. Runway 24: Wet or puddles, 51-100% contamination with 1mm, friction coefficient 0.50. UUWW 191830Z 29002MPS CAVOK 08/06 Q1014 R24/290150 NOSIG
VFR 8°C / 5°C 290º 6kt >10km - Clouds and Visibility OK 1014 No Significant change. Runway 24: Wet or puddles, 51-100% contamination with 1mm, friction coefficient 0.50. UUWW 191800Z 29003MPS CAVOK 08/05 Q1014 R24/290150 NOSIG
VFR 9°C / 5°C 320º 8kt 9000m Light Showers Rain 3.00mm precipitation Vertical Visibility of 0ft. 1014 No Significant change. Runway 01: Wet or puddles, 51-100% contamination with 1mm, friction coefficient 0.50. UUWW 191730Z 32004MPS 9000 -SHRA BKN046CB 09/05 Q1014 R01/290150 NOSIG
VFR 9°C / 5°C 340º 10kt 9000m Light Showers Rain 3.00mm precipitation Vertical Visibility of 0ft. 1014 No Significant change. Runway 01: Wet or puddles, 51-100% contamination with <1mm, friction coefficient 0.50. UUWW 191700Z 34005MPS 9000 -SHRA BKN042CB 09/05 Q1014 R01/290050 NOSIG
VFR 10°C / 6°C 340º 6kt. Wind Shear present on Runway 01. >10km - Broken Clouds 5100ft 1013 No Significant change. Runway 01: Wet or puddles, 51-100% contamination with <1mm, friction coefficient 0.50. UUWW 191630Z 34003MPS 9999 BKN051CB 10/06 Q1013 WS R01 R01/290050 NOSIG
VFR 10°C / 6°C 340º 6kt. Wind Shear present on Runway 01. >10km Light Showers Rain 3.00mm precipitation Vertical Visibility of 0ft. 1013 No Significant change. Runway 01: Wet or puddles, 51-100% contamination with <1mm, friction coefficient 0.50. UUWW 191600Z 34003MPS 9999 -SHRA BKN048CB 10/06 Q1013 WS R01 R01/290050 NOSIG
VFR 10°C / 6°C 20º 6kt. Wind Shear present on Runway 01. >10km Light Showers Rain 3.00mm precipitation Vertical Visibility of 0ft. 1013 No Significant change. Runway 01: Wet or puddles, 51-100% contamination with <1mm, friction coefficient 0.50. UUWW 191530Z 02003MPS 9999 -SHRA BKN046CB 10/06 Q1013 WS R01 R01/290050 NOSIG
VFR 10°C / 6°C 20º 8kt 9000m Light Showers Rain 3.00mm precipitation Vertical Visibility of 0ft. 1013 No Significant change. Runway 01: Wet or puddles, 51-100% contamination with <1mm, friction coefficient 0.50. UUWW 191500Z 02004MPS 9000 -SHRA BKN046CB 10/06 Q1013 R01/290050 NOSIG
MVFR 10°C / 6°C 10º 16kt. Wind Shear present on Runway 01. 7000m Light Showers Rain 3.00mm precipitation Vertical Visibility of 0ft. 1013 Temporary: 34008G15MPS Visibility 2100. Light Showers Rain . Broken Clouds 2000ft. Cumulonimbus . Runway 01: Wet or puddles, 51-100% contamination with <1mm, friction coefficient 0.50. UUWW 191430Z 01008MPS 7000 -SHRA BKN038CB 10/06 Q1013 WS R01 R01/290050 TEMPO 34008G15MPS 2100 -SHRA BKN020CB
VFR 14°C / 3°C 340º 8kt >10km - Broken Clouds 4300ft 1012 No Significant change. Runway 01: Wet or puddles, 51-100% contamination with <1mm, friction coefficient 0.50. UUWW 191400Z 34004MPS 9999 BKN043CB 14/03 Q1012 R01/290050 NOSIG
VFR 14°C / 4°C 320º 6kt >10km - Broken Clouds 4300ft 1012 No Significant change. Runway 01: Wet or puddles, 51-100% contamination with <1mm, friction coefficient 0.50. UUWW 191330Z 32003MPS 9999 BKN043CB 14/04 Q1012 R01/290050 NOSIG
MVFR 14°C / 4°C 330º variable 300º to 010º 12kt >10km Light Showers Rain 3.00mm precipitation Vertical Visibility of 0ft. 1012 No Significant change UUWW 191300Z 33006MPS 300V010 9999 -SHRA BKN022CB 14/04 Q1012 R01/000070 NOSIG
VFR 15°C / 3°C 340º 10kt >10km - Clouds and Visibility OK 1012 No Significant change UUWW 191230Z 34005MPS CAVOK 15/03 Q1012 R01/000070 NOSIG
VFR 14°C / 2°C 320º 10kt >10km - Clouds and Visibility OK 1012 No Significant change UUWW 191200Z 32005MPS CAVOK 14/02 Q1012 R01/000070 NOSIG
VFR 14°C / 2°C 320º variable 270º to 020º 10kt >10km - Clouds and Visibility OK 1012 No Significant change UUWW 191130Z 32005MPS 270V020 CAVOK 14/02 Q1012 R01/000070 NOSIG
VFR 14°C / 3°C 330º 10kt >10km - Clouds and Visibility OK 1013 No Significant change UUWW 191100Z 33005MPS CAVOK 14/03 Q1013 R01/000070 NOSIG
VFR 14°C / 2°C 330º 12kt >10km - Clouds and Visibility OK 1013 No Significant change UUWW 191030Z 33006MPS CAVOK 14/02 Q1013 R01/000070 NOSIG
VFR 14°C / 2°C 310º variable 260º to 010º 8kt Gust 17kt >10km - Clouds and Visibility OK 1013 No Significant change UUWW 191000Z 31004G09MPS 260V010 CAVOK 14/02 Q1013 R01/000070 NOSIG
VFR 13°C / 4°C 330º variable 260º to 030º 4kt >10km - Clouds and Visibility OK 1013 No Significant change UUWW 190930Z 33002MPS 260V030 CAVOK 13/04 Q1013 R01/000070 NOSIG

VFR

7°C / 5°C

[Víc]
Vítr 300º 6kt
Viditelnost >10km
Počasí -
Oblaky Clouds and Visibility OK
Tlak 1014
Změna No Significant change. Runway 24: Wet or puddles, 51-100% contamination with <1mm, friction coefficient 0.50.
Nezpracované UUWW 192100Z 30003MPS CAVOK 07/05 Q1014 R24/290050 NOSIG

VFR

7°C / 5°C

[Víc]
Vítr 300º 6kt
Viditelnost >10km
Počasí -
Oblaky Clouds and Visibility OK
Tlak 1014
Změna No Significant change. Runway 24: Wet or puddles, 51-100% contamination with <1mm, friction coefficient 0.50.
Nezpracované UUWW 192030Z 30003MPS CAVOK 07/05 Q1014 R24/290050 NOSIG

VFR

7°C / 5°C

[Víc]
Vítr 300º 6kt
Viditelnost >10km
Počasí -
Oblaky Clouds and Visibility OK
Tlak 1014
Změna No Significant change. Runway 24: Wet or puddles, 51-100% contamination with <1mm, friction coefficient 0.50.
Nezpracované UUWW 192000Z 30003MPS CAVOK 07/05 Q1014 R24/290050 NOSIG

VFR

8°C / 5°C

[Víc]
Vítr 290º 6kt
Viditelnost >10km
Počasí -
Oblaky Clouds and Visibility OK
Tlak 1014
Změna No Significant change. Runway 24: Wet or puddles, 51-100% contamination with <1mm, friction coefficient 0.50.
Nezpracované UUWW 191930Z 29003MPS CAVOK 08/05 Q1014 R24/290050 NOSIG

VFR

8°C / 5°C

[Víc]
Vítr 290º 6kt
Viditelnost >10km
Počasí -
Oblaky Clouds and Visibility OK
Tlak 1014
Změna No Significant change. Runway 24: Wet or puddles, 51-100% contamination with 1mm, friction coefficient 0.50.
Nezpracované UUWW 191900Z 29003MPS CAVOK 08/05 Q1014 R24/290150 NOSIG

VFR

8°C / 6°C

[Víc]
Vítr 290º 4kt
Viditelnost >10km
Počasí -
Oblaky Clouds and Visibility OK
Tlak 1014
Změna No Significant change. Runway 24: Wet or puddles, 51-100% contamination with 1mm, friction coefficient 0.50.
Nezpracované UUWW 191830Z 29002MPS CAVOK 08/06 Q1014 R24/290150 NOSIG

VFR

8°C / 5°C

[Víc]
Vítr 290º 6kt
Viditelnost >10km
Počasí -
Oblaky Clouds and Visibility OK
Tlak 1014
Změna No Significant change. Runway 24: Wet or puddles, 51-100% contamination with 1mm, friction coefficient 0.50.
Nezpracované UUWW 191800Z 29003MPS CAVOK 08/05 Q1014 R24/290150 NOSIG

VFR

9°C / 5°C

[Víc]
Vítr 320º 8kt
Viditelnost 9000m
Počasí Light Showers Rain 3.00mm precipitation
Oblaky Vertical Visibility of 0ft.
Tlak 1014
Změna No Significant change. Runway 01: Wet or puddles, 51-100% contamination with 1mm, friction coefficient 0.50.
Nezpracované UUWW 191730Z 32004MPS 9000 -SHRA BKN046CB 09/05 Q1014 R01/290150 NOSIG

VFR

9°C / 5°C

[Víc]
Vítr 340º 10kt
Viditelnost 9000m
Počasí Light Showers Rain 3.00mm precipitation
Oblaky Vertical Visibility of 0ft.
Tlak 1014
Změna No Significant change. Runway 01: Wet or puddles, 51-100% contamination with <1mm, friction coefficient 0.50.
Nezpracované UUWW 191700Z 34005MPS 9000 -SHRA BKN042CB 09/05 Q1014 R01/290050 NOSIG

VFR

10°C / 6°C

[Víc]
Vítr 340º 6kt. Wind Shear present on Runway 01.
Viditelnost >10km
Počasí -
Oblaky Broken Clouds 5100ft
Tlak 1013
Změna No Significant change. Runway 01: Wet or puddles, 51-100% contamination with <1mm, friction coefficient 0.50.
Nezpracované UUWW 191630Z 34003MPS 9999 BKN051CB 10/06 Q1013 WS R01 R01/290050 NOSIG

VFR

10°C / 6°C

[Víc]
Vítr 340º 6kt. Wind Shear present on Runway 01.
Viditelnost >10km
Počasí Light Showers Rain 3.00mm precipitation
Oblaky Vertical Visibility of 0ft.
Tlak 1013
Změna No Significant change. Runway 01: Wet or puddles, 51-100% contamination with <1mm, friction coefficient 0.50.
Nezpracované UUWW 191600Z 34003MPS 9999 -SHRA BKN048CB 10/06 Q1013 WS R01 R01/290050 NOSIG

VFR

10°C / 6°C

[Víc]
Vítr 20º 6kt. Wind Shear present on Runway 01.
Viditelnost >10km
Počasí Light Showers Rain 3.00mm precipitation
Oblaky Vertical Visibility of 0ft.
Tlak 1013
Změna No Significant change. Runway 01: Wet or puddles, 51-100% contamination with <1mm, friction coefficient 0.50.
Nezpracované UUWW 191530Z 02003MPS 9999 -SHRA BKN046CB 10/06 Q1013 WS R01 R01/290050 NOSIG

VFR

10°C / 6°C

[Víc]
Vítr 20º 8kt
Viditelnost 9000m
Počasí Light Showers Rain 3.00mm precipitation
Oblaky Vertical Visibility of 0ft.
Tlak 1013
Změna No Significant change. Runway 01: Wet or puddles, 51-100% contamination with <1mm, friction coefficient 0.50.
Nezpracované UUWW 191500Z 02004MPS 9000 -SHRA BKN046CB 10/06 Q1013 R01/290050 NOSIG

MVFR

10°C / 6°C

[Víc]
Vítr 10º 16kt. Wind Shear present on Runway 01.
Viditelnost 7000m
Počasí Light Showers Rain 3.00mm precipitation
Oblaky Vertical Visibility of 0ft.
Tlak 1013
Změna Temporary: 34008G15MPS Visibility 2100. Light Showers Rain . Broken Clouds 2000ft. Cumulonimbus . Runway 01: Wet or puddles, 51-100% contamination with <1mm, friction coefficient 0.50.
Nezpracované UUWW 191430Z 01008MPS 7000 -SHRA BKN038CB 10/06 Q1013 WS R01 R01/290050 TEMPO 34008G15MPS 2100 -SHRA BKN020CB

VFR

14°C / 3°C

[Víc]
Vítr 340º 8kt
Viditelnost >10km
Počasí -
Oblaky Broken Clouds 4300ft
Tlak 1012
Změna No Significant change. Runway 01: Wet or puddles, 51-100% contamination with <1mm, friction coefficient 0.50.
Nezpracované UUWW 191400Z 34004MPS 9999 BKN043CB 14/03 Q1012 R01/290050 NOSIG

VFR

14°C / 4°C

[Víc]
Vítr 320º 6kt
Viditelnost >10km
Počasí -
Oblaky Broken Clouds 4300ft
Tlak 1012
Změna No Significant change. Runway 01: Wet or puddles, 51-100% contamination with <1mm, friction coefficient 0.50.
Nezpracované UUWW 191330Z 32003MPS 9999 BKN043CB 14/04 Q1012 R01/290050 NOSIG

MVFR

14°C / 4°C

[Víc]
Vítr 330º variable 300º to 010º 12kt
Viditelnost >10km
Počasí Light Showers Rain 3.00mm precipitation
Oblaky Vertical Visibility of 0ft.
Tlak 1012
Změna No Significant change
Nezpracované UUWW 191300Z 33006MPS 300V010 9999 -SHRA BKN022CB 14/04 Q1012 R01/000070 NOSIG

VFR

15°C / 3°C

[Víc]
Vítr 340º 10kt
Viditelnost >10km
Počasí -
Oblaky Clouds and Visibility OK
Tlak 1012
Změna No Significant change
Nezpracované UUWW 191230Z 34005MPS CAVOK 15/03 Q1012 R01/000070 NOSIG

VFR

14°C / 2°C

[Víc]
Vítr 320º 10kt
Viditelnost >10km
Počasí -
Oblaky Clouds and Visibility OK
Tlak 1012
Změna No Significant change
Nezpracované UUWW 191200Z 32005MPS CAVOK 14/02 Q1012 R01/000070 NOSIG

VFR

14°C / 2°C

[Víc]
Vítr 320º variable 270º to 020º 10kt
Viditelnost >10km
Počasí -
Oblaky Clouds and Visibility OK
Tlak 1012
Změna No Significant change
Nezpracované UUWW 191130Z 32005MPS 270V020 CAVOK 14/02 Q1012 R01/000070 NOSIG

VFR

14°C / 3°C

[Víc]
Vítr 330º 10kt
Viditelnost >10km
Počasí -
Oblaky Clouds and Visibility OK
Tlak 1013
Změna No Significant change
Nezpracované UUWW 191100Z 33005MPS CAVOK 14/03 Q1013 R01/000070 NOSIG

VFR

14°C / 2°C

[Víc]
Vítr 330º 12kt
Viditelnost >10km
Počasí -
Oblaky Clouds and Visibility OK
Tlak 1013
Změna No Significant change
Nezpracované UUWW 191030Z 33006MPS CAVOK 14/02 Q1013 R01/000070 NOSIG

VFR

14°C / 2°C

[Víc]
Vítr 310º variable 260º to 010º 8kt Gust 17kt
Viditelnost >10km
Počasí -
Oblaky Clouds and Visibility OK
Tlak 1013
Změna No Significant change
Nezpracované UUWW 191000Z 31004G09MPS 260V010 CAVOK 14/02 Q1013 R01/000070 NOSIG

VFR

13°C / 4°C

[Víc]
Vítr 330º variable 260º to 030º 4kt
Viditelnost >10km
Počasí -
Oblaky Clouds and Visibility OK
Tlak 1013
Změna No Significant change
Nezpracované UUWW 190930Z 33002MPS 260V030 CAVOK 13/04 Q1013 R01/000070 NOSIG

TAF pro 55.6°S 37.27°V (UUWW)

From till


Maximum Temperature 13ºC on . Minimum Temperature 3ºC on .
From till Wind 20º 6kt. Gust 17kt. Visibility 10km or more. Scattered Clouds 3000ft.

Nezpracované: TAF UUWW 191952Z 1921/2021 02003G09MPS 9999 SCT030 TX13/2012Z TN03/2001Z

Radar a krátkodobá předpověď srážek pro 55.6°S 37.27°V

Mrholení
Slabé
Střední
Silné
Velmi silné
Kroupy

Značka lokality je umístněna na 55.6°S 37.27°V. Tato animace ukazuje srážky zaznamenané radarem za poslední hodinu a také 1h předpověď. Mrholení nebo slabé sněžení může být pro radar neviditelné. Intenzita srážek je barevně označena od světle modré po oranžovou.

Aktuální snímky ze satelitu a srážky pro 55.6°S 37.27°V

Značka polohy je umístěna na 55.6°S 37.27°V. [Víc]

Satelitní snímek v reálném čase kombinuje viditelné světlo během dne s infračerveným zářením během noci. V noci není obraz tmavý, protože infračervené záření dokáže detekovat teplotní rozdíly. Nízká oblačnost a mlha se bohužel těžko odlišují od pozemních teplot, a proto mohou být během noci téměř neviditelné. Satelitní snímky z Meteosatu pro Evropu jsou aktualizovány v reálném čase každých 5 minut. Snímky z GOES-16/GOES-17 (Severní a Jižní Amerika) a Himawari (Asie) jsou aktualizovány) každých 10 minut.

Copyright 2022 EUMETSAT / meteoblue. / Copyright 2022 meteoblue

Zpět nahoru